Location: Wallasey
(53.4265°N, 3.0662°W)
Time: 14:53:02
(UTC+01:00)

NOAA 18 - Pass Details

Date: 21 September 2019
Orbit: 840 x 861 km, 99.1° (Epoch: 21 October)

Event Time Altitude Azimuth Distance (km) Brightness Sun altitude
Exits shadow 23:07:02 - 236° (SW) 2,728 7.8 -30.7°
Reaches altitude 10° 23:08:08 10° 245° (WSW) 2,495 7.7 -30.8°
Maximum altitude 23:10:57 14° 276° (W) 2,224 7.8 -31.0°
Drops below altitude 10° 23:13:47 10° 307° (NW) 2,509 8.4 -31.3°
Sets 23:17:30 0° 332° (NNW) 3,453 9.5 -31.6°
